Showing default

HAWK-9C, 59448

Orbit data source: Space-Track

HAWK-9C, 59448 is a payload satellite owned by HawkEye 360 (US) in LEO that was launched on Sun, 07 Apr 2024 UTC via an FALCON 9 launch vehicle from the Air Force Eastern Test Range (AFETR). Payload-class satellites include a variety of spacecraft equipped with specific instruments for various scientific and technological missions. These include communications satellites like Starlink; space stations such as the ISS; scientific satellites like the Hubble; Earth observation satellites from companies like Planet Labs, Umbra, and HawkEye 360; GPS; miniature CubeSats for education and research; and military/defense satellites.

Loading next visibility...
Identifier
59448, 2024-066G
Orbit
LEO
Country
Flag of USUS
Related business
Manufacturer
UTIAS-SFL
Mission
Operational Commercial Sigint
Bus & Motor
HAWK2G, Unknown motor
Mass
31 kg wet, 30 kg dry
Launch date (UTC)
2024-04-07 (2 years ago)
Launch vehicle
FALCON 9
Launch site
Air Force Eastern Test Range (AFETR)
Object type
Payload
Rocket body
Debris
Shape & HBR
Box + 2 Pan, 1.0 m
Radar Cross Section
0.240 m², Medium (>0.1 m² and < 1m²)

Expand to show TLE details & history
Last TLE update: 13 hours ago

TLE from 13 hours ago
0 HAWK-9C
1 59448U 24066G   26037.10165024  .00002831  00000-0  25135-3 0  9998
2 59448  45.5951 233.7780 0002045  38.7693 321.3334 14.98616907100166
Epoch: 2026-02-06T02:26Z
TLE epoch observation values (Epoch: 2026-02-06T02:26:22.580Z)
Latitude
-0.00005°
Longitude
60.93951°
Altitude
570.124 km
Speed
7.578 km/s
True Right ascension
15h 35m 06s
True Declination
0° 00' 00"
Sunlit
Object was in daylight at epoch
Visualization orbit readout
Latitude
Unknown
Longitude
Unknown
Altitude
Unknown
Speed
Unknown
Apparent Right ascension
Unknown
Apparent Declination
Unknown
Sunlit
N/A
Visualization observer readout
Local Sidereal Time
17:43:12
Azimuth
Unknown
Elevation
Unknown
Doppler factor
Unknown
Orbital elements
Apogee altitude
574.08 km
Perigee altitude
571.238 km
Semi-major axis
6,950.796 km
Eccentricity
0.0002
Inclination
45.5951°
RAAN
233.778°
Arg. of periapsis
38.7693°
True anomaly
321.31876°
Mean anomaly
321.3334°
Eccentric anomaly
321.32608°
Mean motion
3.74534 °/min
Orbital period
96.12 mins
BSTAR
0.00025135
Loading maneuver chart data...
Computing Atmospheric mass density...
Loading historical data...
Loading historical data...
Loading historical data...
Loading historical data...
Loading historical data...
Loading historical data...
Loading historical data...

Documentation

Showing up to 5 results
|